This demonstration page uses our WeatherBlox Daily Observations layout. Learn more.

Left ArrowRight Arrow

Hourly Observations for July 23, 2015

Temp ( °F °C ) Dew Point ( °F °C ) Humidity (%) Winds ( mph kmh ) Pressure ( in mb ) Visibility ( mi km ) Precip ( " mm )
12:53 am 00:53 Clear 61 16.1 59 15 93 93 NNW 3 6 30.00 1016 10 16 N/A
1:53 am 01:53 Clear 61 16.1 59 15 93 93 N N/A 30.00 1016 10 16 N/A
2:53 am 02:53 Clear 60 15.6 59 15 96 96 N N/A 30.00 1016 10 16 N/A
3:53 am 03:53 Clear 59 15 58 14.4 96 96 N N/A 30.00 1016 10 16 N/A
4:53 am 04:53 Clear 59 15 58 14.4 96 96 N N/A 30.00 1016 10 16 N/A
5:53 am 05:53 Clear 60 15.6 58 14.4 93 93 N N/A 30.00 1016 8 13 N/A
6:53 am 06:53 Sunny 59 15 57 13.9 93 93 N N/A 30.01 1016 8 13 N/A
7:53 am 07:53 Sunny 65 18.3 61 16.1 87 87 N N/A 30.02 1017 10 16 N/A
8:53 am 08:53 Sunny 71 21.7 63 17.2 76 76 N N/A 30.03 1017 10 16 N/A
9:53 am 09:53 Sunny 75 23.9 60 15.6 60 60 N N/A 30.03 1017 10 16 N/A
10:53 am 10:53 Sunny 78 25.6 61 16.1 56 56 VRB 3 6 30.03 1017 10 16 N/A
11:53 am 11:53 Sunny 80 26.7 59 15 49 49 ENE 9 15 30.03 1017 10 16 N/A
12:53 pm 12:53 Partly Cloudy 81 27.2 60 15.6 49 49 VRB 5 7 30.02 1017 10 16 N/A
1:53 pm 13:53 Mostly Cloudy 82 27.8 59 15 46 46 NE 7 11 30.01 1016 10 16 N/A
2:53 pm 14:53 Sunny 82 27.8 60 15.6 47 47 VRB 5 7 29.99 1016 10 16 N/A
3:53 pm 15:53 Mostly Sunny 81 27.2 58 14.4 45 45 N N/A 29.98 1015 10 16 N/A
4:53 pm 16:53 Mostly Sunny 83 28.3 60 15.6 46 46 N N/A 29.97 1015 10 16 N/A
5:53 pm 17:53 Partly Cloudy 80 26.7 61 16.1 52 52 N N/A 29.97 1015 10 16 N/A
6:53 pm 18:53 Partly Cloudy 82 27.8 62 16.7 51 51 N N/A 29.96 1015 10 16 N/A
7:53 pm 19:53 Partly Cloudy 74 23.3 67 19.4 79 79 N N/A 29.97 1015 10 16 N/A
8:53 pm 20:53 Mostly Sunny 72 22.2 66 18.9 82 82 N N/A 29.97 1015 10 16 N/A
9:53 pm 21:53 Mostly Cloudy 70 21.1 64 17.8 82 82 N N/A 29.98 1015 10 16 N/A
10:53 pm 22:53 Mostly Cloudy 66 18.9 64 17.8 93 93 N N/A 30.00 1016 10 16 N/A
11:53 pm 23:53 Mostly Clear 65 18.3 63 17.2 93 93 N N/A 30.01 1016 10 16 N/A

Powered by AerisWeather